This is the latest recevied weather packets stored in our database for station/object KQ4WWD. If no packets are shown the sender has not sent any weather packets the latest 10 day(s).
| Time | Temp. | Humidity | Pressure | Rain* | Wind** | Luminosity | Snow |
|---|---|---|---|---|---|---|---|
| 1777740049 | 30.56° C | 66% | 1010.3 hPa | 0 mm | - | 606 W/m² | - |
| 1777739745 | 30.56° C | 66% | 1010.2 hPa | 0 mm | - | 673 W/m² | - |
| 1777739442 | 30° C | 68% | 1010.1 hPa | 0 mm | - | 652 W/m² | - |
| 1777739139 | 30° C | 68% | 1010.4 hPa | 0 mm | - | 661 W/m² | - |
| 1777738836 | 30° C | 69% | 1010.2 hPa | 0 mm | - | 689 W/m² | - |
| 1777738532 | 29.44° C | 69% | 1010.4 hPa | 0 mm | - | 394 W/m² | - |
| 1777738230 | 29.44° C | 69% | 1010 hPa | 0 mm | - | 309 W/m² | - |
| 1777737928 | 28.89° C | 70% | 1009.8 hPa | 0 mm | - | 268 W/m² | - |
| 1777737626 | 28.89° C | 71% | 1010.1 hPa | 0 mm | - | 332 W/m² | - |
| 1777737325 | 28.89° C | 72% | 1010.1 hPa | 0 mm | - | 244 W/m² | - |
| 1777737021 | 28.33° C | 73% | 1009.9 hPa | 0 mm | - | 273 W/m² | - |
| 1777736716 | 28.33° C | 73% | 1010 hPa | 0 mm | - | 308 W/m² | - |
| 1777736072 | 28.33° C | 74% | 1010.1 hPa | 0 mm | - | 350 W/m² | - |
| 1777735769 | 28.33° C | 74% | 1010.1 hPa | 0 mm | - | 341 W/m² | - |
| 1777735466 | 27.78° C | 76% | 1009.9 hPa | 0 mm | - | 308 W/m² | - |
| 1777735164 | 27.78° C | 75% | 1010.2 hPa | 0 mm | - | 507 W/m² | - |
| 1777734860 | 27.22° C | 77% | 1010 hPa | 0 mm | - | 444 W/m² | - |
| 1777734558 | 27.22° C | 78% | 1010.1 hPa | 0 mm | - | 444 W/m² | - |
| 1777734254 | 26.67° C | 78% | 1009.7 hPa | 0 mm | - | 321 W/m² | - |
| 1777733951 | 26.11° C | 80% | 1010.1 hPa | 0 mm | - | 281 W/m² | - |
| 1777733648 | 26.11° C | 81% | 1010.3 hPa | 0 mm | - | 245 W/m² | - |
| 1777733344 | 25.56° C | 82% | 1010.5 hPa | 0 mm | - | 230 W/m² | - |
| 1777733041 | 25.56° C | 82% | 1010.5 hPa | 0 mm | - | 232 W/m² | - |
| 1777732737 | 25.56° C | 82% | 1010.4 hPa | 0 mm | - | 244 W/m² | - |
| 1777732434 | 25° C | 83% | 1010.2 hPa | 0 mm | - | 229 W/m² | - |
* Rain latest hour (hover to see other rain measurements)
** Current wind speed in m/s (hover to see current wind gust speed)